Flag for Cameroon Weather past 2 weeks in Douala, Cameroon

Now
82 °F

Broken clouds.


Feels Like: 91 °F
Forecast: 75 / 82 °F
Wind: 5 mph from Southwest

Location: Douala Obs.

Current Time: Jun 3, 2015 at 7:12:14 PM

Latest Report: Jun 3, 2015 at 6:00 PM


Visibility: N/A

Pressure: 29.86 "Hg

Humidity: 84%

Dew point: 77 °F

Location of DoualaLocation

Historic Weather in Douala — Graph

°F

Douala temperature yesterday

Maximum temperature yesterday: 86 °F (at 12:00 PM)
Minimum temperature yesterday: 73 °F (at 2:00 AM)
Average temperature yesterday: 79 °F

Past Weeks' High & Low Weather Summary

 TemperatureHumidityPressure
High93 °F (May 22, 1:00 PM)100% (May 22, 1:00 AM)29.98 "Hg (May 22, 1:00 AM)
Low73 °F (May 21, 7:00 AM)56% (May 22, 1:00 PM)29.77 "Hg (May 28, 4:00 PM)
Average82 °F84%29.87 "Hg
* Reported May 19 6:00 PM — Jun 3 6:00 PM, Douala, Weather by CustomWeather, © 2015

Note: Actual official high and low records may vary slightly from our data, if they occured in-between our weather recording intervals... More about our weather records

Advertising

Douala weather history for previous 24 hours

 ConditionsComfort  
Time TempWeatherWind HumidityBarometerVisibility
6:00 PM
Wed, Jun 3
82 °FBroken clouds.5 mph84%29.86 "HgN/A
5:00 PM84 °FBroken clouds.9 mph74%29.83 "HgN/A
4:00 PM84 °FBroken clouds.9 mph74%29.83 "HgN/A
3:00 PM84 °FPartly sunny.5 mph74%29.83 "HgN/A
2:00 PM84 °FPartly sunny.5 mph79%29.89 "HgN/A
1:00 PM86 °FPartly sunny.7 mph75%29.89 "HgN/A
12:00 PM84 °FPartly sunny.5 mph79%29.92 "HgN/A
11:00 AM81 °FLight rain. Broken clouds.No wind94%29.95 "Hg4 mi
10:00 AM81 °FMore clouds than sun.No wind89%29.95 "Hg5 mi
9:00 AM77 °FLight rain. More clouds than sun.No wind100%29.92 "Hg4 mi
8:00 AM77 °FRain. More clouds than sun.No wind94%29.89 "Hg1 mi
7:00 AM77 °FLight rain. More clouds than sun.No wind94%29.89 "Hg2 mi
6:00 AM77 °FThunderstorms. Mostly cloudy.3 mph94%29.86 "Hg1 mi
5:00 AM77 °FThunderstorms. Mostly cloudy.7 mph100%29.86 "Hg1 mi
4:00 AM79 °FThunderstorms. Mostly cloudy.7 mph94%29.86 "Hg2 mi
3:00 AM79 °FRain. Passing clouds.No wind94%29.86 "Hg2 mi
2:00 AM79 °FPartly cloudy.2 mph94%29.86 "HgN/A
1:00 AM79 °FPassing clouds.3 mph94%29.89 "HgN/A
11:00 PM
Tue, Jun 2
81 °FThunderstorms. Partly cloudy.5 mph89%29.89 "HgN/A
10:00 PM81 °FThunderstorms. Passing clouds.7 mph89%29.89 "HgN/A
9:00 PM81 °FThunderstorms. Passing clouds.No wind89%29.86 "HgN/A
8:00 PM81 °FPartly cloudy.No wind89%29.86 "HgN/A
7:00 PM81 °FPartly cloudy.7 mph89%29.83 "HgN/A
Weather by CustomWeather, © 2015

See weather overviewHow to use our weather pages